Location: *
(42.5628°N, 2.3633°E)
Time: 02:38:44
(UTC+00:00)

STARLINK-1116 - Pass Details

Date: 30 March 2020
Orbit: 549 x 551 km, 53.0° (Epoch: 31 May)

Event Time Altitude Azimuth Distance (km) Brightness Sun altitude
Rises 18:49:56 0° 308° (NW) 2,720 8.5 -7.2°
Reaches altitude 10° 18:52:14 10° 313° (NW) 1,824 7.3 -7.6°
Maximum altitude 18:56:16 51° 30° (NNE) 697 4.0 -8.4°
Enters shadow 18:59:58 12° 106° (ESE) 1,688 5.4 -9.0°
